Location: Churchill Northern Studies Centre
(58.7378°N, 93.8201°W)
Time: 05:32:27
(UTC-06:00)

Vanguard 1 Rocket - All Passes

Search period start: 25 February 2018 00:00
Search period end: 07 March 2018 00:00
Orbit: 655 x 4222 km, 34.3° (Epoch: 24 February)

Date Brightness Start Highest point End Pass type
(mag) Time Alt. Az. Time Alt. Az. Time Alt. Az.
25 Feb - 00:53:59 10° WSW 01:13:34 36° S 01:34:24 10° SE visible
25 Feb - 03:22:24 10° W 03:40:42 27° SSW 03:57:36 10° SSE visible
25 Feb - 21:19:57 10° SSW 21:33:59 26° SE 21:52:04 10° ESE visible
25 Feb - 23:42:23 10° SW 00:00:32 36° S 00:21:55 10° ESE visible
26 Feb - 02:08:52 10° WSW 02:28:09 32° SSW 02:47:25 10° SSE visible
26 Feb - 04:40:50 10° W 04:53:55 17° SW 05:06:03 10° SSW visible
26 Feb - 20:11:41 10° S 20:22:31 19° SE 20:36:20 10° E visible
26 Feb - 22:31:36 10° SW 22:47:48 33° SSE 23:08:31 10° ESE visible
27 Feb - 00:56:21 10° WSW 01:15:15 35° S 01:36:04 10° SE visible
27 Feb - 03:25:12 10° W 03:42:07 24° SW 03:58:20 10° S visible
27 Feb - 19:06:48 10° SE 19:11:46 12° ESE 19:17:24 10° ESE visible
27 Feb - 21:21:43 10° SSW 21:35:35 28° SSE 21:54:13 10° ESE visible
27 Feb - 23:44:41 10° SW 00:02:16 36° S 00:23:40 10° SE visible
28 Feb - 02:11:27 10° WSW 02:29:43 29° SSW 02:48:35 10° SSE visible
28 Feb - 04:45:19 10° WSW 04:55:07 14° SW 05:04:34 10° SSW visible
28 Feb - 20:12:57 10° S 20:24:02 22° SE 20:38:52 10° E visible
28 Feb - 22:33:49 10° SW 22:49:33 34° SSE 23:10:21 10° ESE visible
01 Mar - 00:58:51 10° WSW 01:16:57 33° SSW 01:37:28 10° SE visible
01 Mar - 03:28:23 10° W 03:43:29 20° SW 03:58:28 10° S visible
01 Mar - 19:06:17 10° SSE 19:13:12 14° SE 19:21:39 10° ESE visible
01 Mar - 21:23:45 10° SSW 21:37:18 30° SSE 21:56:11 10° ESE visible
01 Mar - 23:47:09 10° WSW 00:04:04 35° S 00:25:14 10° SE visible
02 Mar - 02:14:16 10° WSW 02:31:15 26° SSW 02:49:21 10° SSE visible
02 Mar - 04:53:56 10° WSW 04:56:16 10° WSW 04:58:36 10° SW visible
02 Mar - 20:14:38 10° S 20:25:42 24° SE 20:41:07 10° ESE visible
02 Mar - 22:36:13 10° SW 22:51:22 34° S 23:12:02 10° ESE visible
03 Mar - 01:01:32 10° WSW 01:18:39 31° SSW 01:38:35 10° SSE visible
03 Mar - 03:32:11 10° WSW 03:44:50 17° SW 03:57:43 10° SSW visible
03 Mar - 19:07:03 10° SSE 19:14:47 16° SE 19:24:48 10° ESE visible
03 Mar - 21:26:01 10° SW 21:39:09 31° SSE 21:57:59 10° ESE visible
03 Mar - 23:49:46 10° WSW 00:05:53 33° S 00:26:34 10° SE visible
04 Mar - 02:17:23 10° WSW 02:32:48 23° SW 02:49:36 10° S visible
04 Mar - 20:16:38 10° SSW 20:27:30 25° SSE 20:43:10 10° ESE visible
04 Mar - 22:38:45 10° SW 22:53:17 33° S 23:13:32 10° SE visible
05 Mar - 01:04:25 10° WSW 01:20:21 28° SSW 01:39:20 10° SSE visible
05 Mar - 03:37:14 10° WSW 03:46:10 13° SW 03:55:22 10° SSW visible
05 Mar - 19:08:28 10° S 19:16:31 18° SE 19:27:27 10° ESE visible
05 Mar - 21:28:27 10° SW 21:41:05 31° SSE 21:59:39 10° ESE visible
05 Mar - 23:52:32 10° WSW 00:07:45 31° SSW 00:27:38 10° SE visible
06 Mar - 02:20:58 10° WSW 02:34:20 19° SW 02:49:09 10° S visible
06 Mar - 18:04:30 10° SE 18:06:10 10° SE 18:07:55 10° ESE daylight
06 Mar - 20:18:53 10° SSW 20:29:26 26° SSE 20:45:04 10° ESE visible
06 Mar - 22:41:27 10° WSW 22:55:16 32° S 23:14:50 10° SE visible
